Portada
METAR-TAF:

METAR-TAF

Aeropuertos :

Puerto Carreño, Colombia

Aeropuerto Germán Olano

latitud: 06-10N, longitud: 067-30W, altitud: 55 m

Observación

El informe se hizo hace 5 horas y 53 minutos, a las 04:00 UTC
Viento calma
Temperatura 26°C
Humedad 89%
Presión 1012 hPa
Visibilidad 10 km o más
Escasas nubes a una altura de 1500 ft
Nubes dispersas a una altura de 7000 ft

METAR: SKPC 230400Z 00000KT 9999 FEW015 SCT070 26/24 A2987

Hora: 04:53 (09:53 UTC)


TAF: falta

Observaciones y pronósticos meteorológicos de más de 4000 aeropuertos (mensajes METAR y TAF).

Los puntos amarillos y rojos representan las estaciones disponibles.

Ponga el ratón en el punto deseado para ver el nombre de la estación.

Haga clic para ver las observaciones y los pronósticos meteorológicos.

Para cambiar el mapa : haga clic en los botones verdes con una cruz de color negro para hacer un zoom, en el botón verde con un guión para alejar o en las flechas verdes para mapas adyacentes.


METAR-TAF: